Date,Year,Month,Day of Year,Day of Month,RWC Lower Bole Young,centered rbaiy,totawstdy,tairstdy,stemp5stdy,======,RWC Lower Bole Old,centered rbaio,totawstdo,tairstdo,stemp5stdo,minusrhstd
11/09/2004,2004,11,314,9,1.2615354783,,0.5999844079,-0.371709953,0.4964590304,,3.863859463,,-0.151294596,-0.250797608,0.4112117531,-0.070488744
11/10/2004,2004,11,315,10,1.2106031962,,0.6232157002,-0.398514872,0.4572668038,,3.7682380677,,-0.13387522,-0.280640738,0.3631457488,-0.093740848
11/11/2004,2004,11,316,11,1.1604005396,,0.6461303599,-0.424834659,0.4186079826,,3.6736775186,,-0.116792228,-0.309918964,0.3159021309,-0.116325949
11/12/2004,2004,11,317,12,1.1109296568,,0.6687274592,-0.450668008,0.3804835894,,3.5801850842,,-0.100055199,-0.338630642,0.2694906937,-0.138243081
11/13/2004,2004,11,318,13,1.062192696,,0.6910060702,-0.476013614,0.3428946468,,3.4877680323,,-0.083673712,-0.366774125,0.2239212314,-0.15949128
11/14/2004,2004,11,319,14,1.0141918056,,0.7129652653,-0.500870171,0.3058421775,,3.3964336313,,-0.067657348,-0.394347769,0.1792035384,-0.180069579
11/15/2004,2004,11,320,15,0.9669291339,,0.7346041165,-0.525236373,0.2693272042,,3.3061891489,,-0.052015685,-0.421349927,0.135347409,-0.199977014
11/16/2004,2004,11,321,16,0.9204068291,,0.7559216961,-0.549110914,0.2333507494,,3.217041853,,-0.036758304,-0.447778956,0.0923626374,-0.21921262
11/17/2004,2004,11,322,17,0.8746270395,,0.7769170762,-0.572492489,0.1979138359,,3.1289990114,,-0.021894783,-0.473633209,0.050259018,-0.237775431
11/18/2004,2004,11,323,18,0.8295919134,,0.797589329,-0.595379793,0.1630174861,,3.0420678918,,-0.007434703,-0.498911042,0.0090463451,-0.255664483
11/19/2004,2004,11,324,19,0.7853035989,,0.8179375267,-0.617771518,0.1286627229,,2.9562557618,,0.0066123579,-0.523610808,-0.031265587,-0.272878811
11/20/2004,2004,11,325,20,0.7417642444,,0.8379607415,-0.63966636,0.0948505687,,2.8715698888,,0.0202368195,-0.547730863,-0.070666984,-0.289417448
11/21/2004,2004,11,326,21,0.698975998,,0.8576580455,-0.661063014,0.0615820463,,2.7880175403,,0.0334291024,-0.571269561,-0.109148052,-0.305279431
11/22/2004,2004,11,327,22,0.6569410079,,0.877028511,-0.681960172,0.0288581782,,2.7056059836,,0.046179627,-0.594225256,-0.146698996,-0.320463793
11/23/2004,2004,11,328,23,0.6156614223,,0.8960712102,-0.702356529,-0.003320013,,2.6243424858,,0.0585523053,-0.616596305,-0.183402473,-0.33496957
11/24/2004,2004,11,329,24,0.5751393895,,0.9147852152,-0.72225078,-0.034951504,,2.5442343142,,0.0706242432,-0.63838106,-0.219350133,-0.348795797
11/25/2004,2004,11,330,25,0.5353770575,,0.9331695982,-0.741641619,-0.066035273,,2.4652887357,,0.0824056528,-0.659577878,-0.254545668,-0.361941509
11/26/2004,2004,11,331,26,0.4963765745,,0.9512234313,-0.76052774,-0.096570298,,2.3875130173,,0.093906746,-0.680185112,-0.288992775,-0.37440574
11/27/2004,2004,11,332,27,0.4581400887,,0.9689457869,-0.778907838,-0.126555554,,2.3109144259,,0.1051377346,-0.700201117,-0.322695145,-0.386187525
11/28/2004,2004,11,333,28,0.4206697482,,0.986335737,-0.796780606,-0.155990021,,2.2355002281,,0.1161088305,-0.719624248,-0.355656475,-0.3972859
11/29/2004,2004,11,334,29,0.3839677011,,1.0033923539,-0.814144739,-0.184872675,,2.1612776908,,0.1268302457,-0.73845286,-0.387880457,-0.407699898
11/30/2004,2004,11,335,30,0.3480360956,,1.0201147097,-0.830998932,-0.213202493,,2.0882540803,,0.137312192,-0.756685307,-0.419370786,-0.417428556
12/01/2004,2004,12,336,1,0.3128770796,,1.0365018767,-0.847341878,-0.240978453,,2.0164366633,,0.1475648814,-0.774319944,-0.450131156,-0.426470907
12/02/2004,2004,12,337,2,0.2784928013,,1.0525529269,-0.863172271,-0.268199533,,1.9458327062,,0.1575985259,-0.791355125,-0.480165261,-0.434825987
12/03/2004,2004,12,338,3,0.2448854088,,1.0682669326,-0.878488807,-0.294864709,,1.8764494751,,0.1674233372,-0.807789206,-0.509476795,-0.44249283
12/04/2004,2004,12,339,4,0.2120570502,,1.083642966,-0.893290179,-0.320972959,,1.8082942364,,0.1770495273,-0.82362054,-0.538069452,-0.449470472
12/05/2004,2004,12,340,5,0.1800098734,,1.0986800993,-0.907575082,-0.346523261,,1.7413742562,,0.1864873081,-0.838847484,-0.565946927,-0.455757947
12/06/2004,2004,12,341,6,0.1487460265,,1.1133774046,-0.921342209,-0.371514591,,1.6756968005,,0.1957468915,-0.85346839,-0.593112913,-0.461300177
12/07/2004,2004,12,342,7,0.1183263888,,1.1277506288,-0.934590256,-0.395945927,,1.6113137223,,0.2047695557,-0.867412338,-0.619456371,-0.46605075
12/08/2004,2004,12,343,8,0.0887996645,,1.1418175913,-0.947268331,-0.419787828,,1.5482527448,,0.2134940718,-0.88062067,-0.644875585,-0.470021703
12/09/2004,2004,12,344,9,0.0601497392,,1.1555804727,-0.959334799,-0.443017584,,1.4864849386,,0.2219268915,-0.893110133,-0.669388234,-0.473225071
12/10/2004,2004,12,345,10,0.0323604984,,1.1690414538,-0.970802236,-0.465644274,,1.4259813745,,0.2300744662,-0.904897479,-0.693011997,-0.475672889
12/11/2004,2004,12,346,11,0.0054158275,,1.1822027153,-0.981683217,-0.487676974,,1.366713123,,0.2379432477,-0.915999456,-0.715764554,-0.477377195
12/12/2004,2004,12,347,12,-0.020700388,,1.1950664379,-0.991990319,-0.509124761,,1.3086512547,,0.2455396874,-0.926432814,-0.737663584,-0.478350022
12/13/2004,2004,12,348,13,-0.046004262,,1.2076348025,-1.001736118,-0.529996714,,1.25176684,,0.2528702369,-0.936214301,-0.758726766,-0.478603408
12/14/2004,2004,12,349,14,-0.07051191,-1.062475941,1.2199099896,-1.010933188,-0.550301908,,1.1960309492,-0.605853018,0.2599413478,-0.945360669,-0.77897178,-0.478149388
12/15/2004,2004,12,350,15,-0.094239446,,1.2318941801,-1.019594107,-0.570049423,,1.1414146525,,0.2667594717,-0.953888665,-0.798416305,-0.476999998
12/16/2004,2004,12,351,16,-0.117202985,,1.2435895547,-1.027731449,-0.589248334,,1.0878890201,,0.2733310601,-0.961815039,-0.81707802,-0.475167273
12/17/2004,2004,12,352,17,-0.139418641,,1.2549982941,-1.035357792,-0.60790772,,1.035425122,,0.2796625645,-0.969156541,-0.834974605,-0.47266325
12/18/2004,2004,12,353,18,-0.160902529,,1.266122579,-1.04248571,-0.626036657,,0.9839940282,,0.2857604367,-0.97592992,-0.852123739,-0.469499964
12/19/2004,2004,12,354,19,-0.181670763,,1.2769645902,-1.04912778,-0.643644223,,0.9335668086,,0.291631128,-0.982151926,-0.868543101,-0.46568945
12/20/2004,2004,12,355,20,-0.201739458,,1.2875265085,-1.055296578,-0.660739496,,0.8841145329,,0.2972810902,-0.987839307,-0.884250371,-0.461243746
12/21/2004,2004,12,356,21,-0.221124728,,1.2978105144,-1.061004679,-0.677331552,,0.8356082708,,0.3027167747,-0.993008814,-0.899263228,-0.456174886
12/22/2004,2004,12,357,22,-0.239842689,,1.3078187889,-1.066264659,-0.693429469,,0.788019092,,0.3079446332,-0.997677196,-0.913599351,-0.450494906
12/23/2004,2004,12,358,23,-0.257909455,,1.3175535125,-1.071089095,-0.709042324,,0.7413180659,,0.3129711172,-1.001861202,-0.92727642,-0.444215842
12/24/2004,2004,12,359,24,-0.27534114,,1.3270168662,-1.075490561,-0.724179194,,0.695476262,,0.3178026783,-1.005577581,-0.940312114,-0.43734973
12/25/2004,2004,12,360,25,-0.29215386,,1.3362110304,-1.079481634,-0.738849157,,0.6504647495,,0.322445768,-1.008843083,-0.952724112,-0.429908605
12/26/2004,2004,12,361,26,-0.308363728,,1.3451381861,-1.083074891,-0.753061291,,0.6062545978,,0.326906838,-1.011674457,-0.964530094,-0.421904504
12/27/2004,2004,12,362,27,-0.32398686,,1.353800514,-1.086282905,-0.766824672,,0.562816876,,0.3311923397,-1.014088453,-0.975747739,-0.413349462
12/28/2004,2004,12,363,28,-0.339039369,,1.3622001947,-1.089118255,-0.780148378,,0.520122653,,0.3353087248,-1.016101821,-0.986394726,-0.404255515
12/29/2004,2004,12,364,29,-0.353537372,,1.370339409,-1.091593515,-0.793041486,,0.478142998,,0.3392624448,-1.017731308,-0.996488735,-0.394634698
12/30/2004,2004,12,365,30,-0.367496983,,1.3782203377,-1.093721261,-0.805513073,,0.4368489798,,0.3430599513,-1.018993666,-1.006047445,-0.384499048
12/31/2004,2004,12,366,31,-0.380934315,,1.3858451614,-1.095514069,-0.817572217,,0.3962116671,,0.3467076958,-1.019905643,-1.015088535,-0.3738606
01/01/2005,2005,1,1,1,-0.393865485,,1.393216061,-1.096984516,-0.829227995,,0.3562021287,,0.35021213,-1.020483989,-1.023629685,-0.362731391
01/02/2005,2005,1,2,2,-0.406306607,,1.4003352171,-1.098145176,-0.840489484,,0.3167914331,,0.3535797054,-1.020745453,-1.031688573,-0.350293244
01/03/2005,2005,1,3,3,-0.418273795,,1.4072048104,-1.099008627,-0.851365763,,0.2781606537,,0.3566985608,-1.020706784,-1.038797452,-0.335816529
01/04/2005,2005,1,4,4,-0.429412163,,1.4137422557,-1.099587443,-0.861865907,,0.2410761597,,0.3594647732,-1.019887968,-1.044526428,-0.319446097
01/05/2005,2005,1,5,5,-0.439379149,,1.4198760347,-1.099473712,-0.871733959,,0.2060497401,,0.3618967013,-1.017846194,-1.048949967,-0.301326801
01/06/2005,2005,1,6,6,-0.448209355,,1.425624929,-1.098291401,-0.880733099,,0.1729754862,,0.3640127042,-1.01465401,-1.052142534,-0.281603491
01/07/2005,2005,1,7,7,-0.455937386,,1.4310077199,-1.096100905,-0.888901109,,0.1417474893,,0.3658311407,-1.010383971,-1.054178592,-0.260421019
01/08/2005,2005,1,8,8,-0.462597843,,1.4360431889,-1.09296262,-0.896275771,,0.1122598407,,0.3673703696,-1.005108626,-1.055132608,-0.237924237
01/09/2005,2005,1,9,9,-0.46822533,,1.4407501176,-1.088936942,-0.90289487,,0.0844066313,,0.3686487499,-0.998900527,-1.055079047,-0.214257996
01/10/2005,2005,1,10,10,-0.472854451,,1.4451472873,-1.084084267,-0.908796187,,0.0580819524,,0.3696846404,-0.991832226,-1.054092372,-0.189567148
01/11/2005,2005,1,11,11,-0.476519807,,1.4492534796,-1.078464989,-0.914017506,,0.0331798947,,0.3704964,-0.983976274,-1.052247049,-0.163996545
01/12/2005,2005,1,12,12,-0.479256002,,1.4530874759,-1.072139505,-0.91859661,,0.0095945493,,0.3711023875,-0.975405223,-1.049617543,-0.137691038
01/13/2005,2005,1,13,13,-0.48109764,,1.4566680578,-1.065168209,-0.92257128,,-0.012779993,,0.3715209618,-0.966191624,-1.046278319,-0.110795478
01/14/2005,2005,1,14,14,-0.482079323,,1.4600140066,-1.057611499,-0.925979301,,-0.034049642,,0.3717704819,-0.956408029,-1.042303842,-0.083454718
01/15/2005,2005,1,15,15,-0.482235654,,1.4631441038,-1.049529768,-0.928858455,,-0.054320307,,0.3718693066,-0.946126989,-1.037768576,-0.055813609
01/16/2005,2005,1,16,16,-0.481601236,,1.4660771309,-1.040983414,-0.931246524,,-0.073697897,,0.3718357947,-0.935421055,-1.032746987,-0.028017003
01/17/2005,2005,1,17,17,-0.480210674,,1.4688318695,-1.032032831,-0.933181292,,-0.092288322,,0.3716883051,-0.924362779,-1.027313539,-0.00020975
01/18/2005,2005,1,18,18,-0.478098569,,1.4714271009,-1.022738414,-0.934700542,,-0.110197492,,0.3714451967,-0.913024713,-1.021542697,0.0274632964
01/19/2005,2005,1,19,19,-0.475299524,,1.4738816066,-1.013160561,-0.935842056,,-0.127531316,,0.3711248285,-0.901479408,-1.015508926,0.0548572858
01/20/2005,2005,1,20,20,-0.471848144,-1.372475941,1.4762141681,-1.003359666,-0.936643617,,-0.144395704,-1.322519685,0.3707455592,-0.889799415,-1.009286691,0.0818273663
01/21/2005,2005,1,21,21,-0.467779031,,1.4784435669,-0.993396124,-0.937143009,,-0.160896566,,0.3703257477,-0.878057285,-1.002950458,0.1082286863
01/22/2005,2005,1,22,22,-0.463126788,,1.4805885844,-0.983330332,-0.937378013,,-0.177139813,,0.3698837529,-0.866325572,-0.99657469,0.1339163941
01/23/2005,2005,1,23,23,-0.457926019,,1.4826680022,-0.973222685,-0.937386414,,-0.193231354,,0.3694379337,-0.854676825,-0.990233853,0.1587456383
01/24/2005,2005,1,24,24,-0.452211327,,1.4847006016,-0.963133578,-0.937205993,,-0.2092771,,0.369006649,-0.843183596,-0.984002411,0.1825715671
01/25/2005,2005,1,25,25,-0.446017314,,1.4867051642,-0.953123407,-0.936874533,,-0.22538296,,0.3686082576,-0.831918437,-0.97795483,0.205249329
01/26/2005,2005,1,26,26,-0.439378585,,1.4887004714,-0.943252569,-0.936429818,,-0.241654846,,0.3682611184,-0.820953899,-0.972165575,0.2266340725
01/27/2005,2005,1,27,27,-0.432329742,,1.4907053047,-0.933581457,-0.93590963,,-0.258198668,,0.3679835902,-0.810362533,-0.966709109,0.2465809458
01/28/2005,2005,1,28,28,-0.424905389,,1.4927384455,-0.924170469,-0.935351752,,-0.275120336,,0.3677940321,-0.800216892,-0.961659899,0.2649450974
01/29/2005,2005,1,29,29,-0.417140129,,1.4948186754,-0.915079999,-0.934793967,,-0.292525761,,0.3677108027,-0.790589527,-0.957092409,0.2836269372
01/30/2005,2005,1,30,30,-0.409068565,,1.4969647758,-0.906370443,-0.934274058,,-0.310520853,,0.367197882,-0.781552988,-0.951986418,0.3044526407
01/31/2005,2005,1,31,31,-0.4007253,,1.4991955282,-0.898102197,-0.933829808,,-0.329057302,,0.3657734671,-0.773179828,-0.945362821,0.3271660049
02/01/2005,2005,2,32,1,-0.391868208,,1.5009245127,-0.890335657,-0.933498999,,-0.347861677,,0.3635372431,-0.764684255,-0.937357758,0.3515108267
02/02/2005,2005,2,33,2,-0.382268639,,1.5016192714,-0.883131217,-0.933319414,,-0.366738932,,0.360588895,-0.755296616,-0.928107369,0.377230903
02/03/2005,2005,2,34,3,-0.371981412,,1.5013795294,-0.876041492,-0.932988549,,-0.385668247,,0.3570281078,-0.745113663,-0.917747795,0.4040700307
02/04/2005,2005,2,35,4,-0.361061346,,1.5003050113,-0.868606016,-0.932197312,,-0.404628806,,0.3529545667,-0.734232151,-0.906415177,0.4317720069
02/05/2005,2005,2,36,5,-0.34956326,,1.498495442,-0.86086556,-0.93097361,,-0.42359979,,0.3484679567,-0.722748836,-0.894245654,0.4600806284
02/06/2005,2005,2,37,6,-0.337541974,,1.4960505464,-0.852860898,-0.929345348,,-0.442560382,,0.3436679628,-0.710760471,-0.881375367,0.4887396922
02/07/2005,2005,2,38,7,-0.325052306,,1.4930700492,-0.844632802,-0.927340433,,-0.461489764,,0.3386542701,-0.698363811,-0.867940456,0.5174929952
02/08/2005,2005,2,39,8,-0.312149076,,1.4896536752,-0.836222046,-0.924986769,,-0.480367119,,0.3335265636,-0.685655611,-0.854077061,0.5460843343
02/09/2005,2005,2,40,9,-0.298887103,,1.4859011493,-0.827669402,-0.922312264,,-0.499171629,,0.3283845283,-0.672732625,-0.839921323,0.5742575065
02/10/2005,2005,2,41,10,-0.285321206,,1.4819121963,-0.819015644,-0.919344822,,-0.517882477,,0.3233278494,-0.659691608,-0.825609382,0.6017563087
02/11/2005,2005,2,42,11,-0.271506204,,1.477786541,-0.810301543,-0.916112349,,-0.536478845,,0.3184562119,-0.646629315,-0.811277378,0.6283245379
02/12/2005,2005,2,43,12,-0.257496917,,1.4736239083,-0.801567873,-0.912642752,,-0.554939916,,0.3138693007,-0.633642499,-0.797061452,0.653705991
02/13/2005,2005,2,44,13,-0.243348164,,1.4695240229,-0.792855407,-0.908963935,,-0.573244874,,0.3096668011,-0.620827915,-0.783097744,0.6776444649
02/14/2005,2005,2,45,14,-0.229114764,,1.4655866097,-0.784204918,-0.905103806,,-0.591372901,,0.3059483979,-0.608282319,-0.769522394,0.6998837565
02/15/2005,2005,2,46,15,-0.214851536,,1.4619113935,-0.775657179,-0.901090268,,-0.60930318,,0.3028137764,-0.596102463,-0.756471542,0.7201676629
02/16/2005,2005,2,47,16,-0.200613299,-0.941364829,1.4585980991,-0.767252962,-0.89695123,,-0.627014895,-2.905853018,0.3003626214,-0.584385104,-0.744081329,0.7382399809
02/17/2005,2005,2,48,17,-0.186454873,,1.4557464513,-0.75903304,-0.892714595,,-0.644487228,,0.2986946181,-0.573226996,-0.732487895,0.7538445075
02/18/2005,2005,2,49,18,-0.172431078,,1.453456175,-0.751038186,-0.888408271,,-0.661699363,,0.2979094516,-0.562724892,-0.721827381,0.7667250396
02/19/2005,2005,2,50,19,-0.158596732,,1.4518269949,-0.743309174,-0.884060162,,-0.678630484,,0.2981068068,-0.552975548,-0.712235926,0.7766253741
02/20/2005,2005,2,51,20,-0.145006654,,1.450958636,-0.735886775,-0.879698175,,-0.695259774,,0.2993863688,-0.544075718,-0.703849671,0.783289308
02/21/2005,2005,2,52,21,-0.131715665,,1.4509508229,-0.728811764,-0.875350215,,-0.711566417,,0.3018478227,-0.536122157,-0.696804756,0.7864606382
02/22/2005,2005,2,53,22,-0.118778583,,1.4519032806,-0.722124912,-0.871044188,,-0.727529596,,0.3055908535,-0.529211619,-0.691237322,0.7858831617
02/23/2005,2005,2,54,23,-0.106250227,,1.4539157338,-0.715866993,-0.866808,,-0.743128495,,0.3107151462,-0.523440859,-0.687283509,0.7813006754
02/24/2005,2005,2,55,24,-0.094185418,,1.4570879074,-0.710078779,-0.862669557,,-0.758342298,,0.317320386,-0.518906631,-0.685079457,0.7724569762
02/25/2005,2005,2,56,25,-0.082638974,,1.4615195261,-0.704801044,-0.858656764,,-0.773150188,,0.3255062578,-0.51570569,-0.684761306,0.7586916239
02/26/2005,2005,2,57,26,-0.071665715,,1.4673103149,-0.70007456,-0.854797528,,-0.787531351,,0.3352808275,-0.51393479,-0.687219946,0.7397554817
02/27/2005,2005,2,58,27,-0.061320459,,1.4745599985,-0.6959401,-0.851119754,,-0.80145275,,0.3465191124,-0.513690686,-0.692915041,0.7160093022
02/28/2005,2005,2,59,28,-0.051658028,,1.4833683017,-0.692438437,-0.847651347,,-0.814809215,,0.3591212245,-0.515202478,-0.701335899,0.6878138377
03/01/2005,2005,3,60,1,-0.042627819,,1.4938356911,-0.689610344,-0.844420215,,-0.827542652,,0.3729872761,-0.5185345,-0.711971826,0.6555298406
03/02/2005,2005,3,61,2,-0.034134721,,1.5059157785,-0.687496594,-0.841454262,,-0.839683549,,0.3880173793,-0.523536364,-0.724312127,0.6195180633
03/03/2005,2005,3,62,3,-0.02616679,,1.5194880065,-0.686284029,-0.838859127,,-0.851262395,,0.4041116464,-0.53005768,-0.73784611,0.5801392583
03/04/2005,2005,3,63,4,-0.018712083,,1.534431818,-0.686071829,-0.836681572,,-0.862309678,,0.4211701896,-0.537948057,-0.75206308,0.537754178
03/05/2005,2005,3,64,5,-0.011758656,,1.5506266557,-0.686769268,-0.834861185,,-0.872855885,,0.4390931209,-0.547057107,-0.766452343,0.4927235747
03/06/2005,2005,3,65,6,-0.005294564,,1.5679519622,-0.688285624,-0.833337555,,-0.882931505,,0.4577805527,-0.557234438,-0.780503206,0.4454082009
03/07/2005,2005,3,66,7,0.0006921362,,1.5862871804,-0.690530171,-0.832050269,,-0.892567026,,0.477132597,-0.568329662,-0.793704975,0.3961688089
03/08/2005,2005,3,67,8,0.0062133891,,1.6055117529,-0.693412186,-0.830938918,,-0.901792937,,0.4970493661,-0.580192389,-0.805546956,0.3453661513
03/09/2005,2005,3,68,9,0.0112811385,,1.6255051225,-0.696840945,-0.829943089,,-0.910639726,,0.5174309722,-0.592672229,-0.815518456,0.2933609803
03/10/2005,2005,3,69,10,0.0159073283,,1.6461467318,-0.700725723,-0.829002371,,-0.919137881,,0.5381775274,-0.605618792,-0.823108781,0.2405140484
03/11/2005,2005,3,70,11,0.0201039025,,1.6673160238,-0.704975798,-0.828056352,,-0.927317892,,0.5591891439,-0.618881689,-0.827807236,0.1871861081
03/12/2005,2005,3,71,12,0.023882805,,1.6888924409,-0.709500443,-0.827044621,,-0.935210247,,0.580365934,-0.632310529,-0.833130546,0.1337379116
03/13/2005,2005,3,72,13,0.0272559798,,1.7107554261,-0.714208936,-0.825906766,,-0.942845436,,0.6016080097,-0.645754923,-0.84244259,0.0805302115
03/14/2005,2005,3,73,14,0.0302353708,-1.784698163,1.732784422,-0.719010552,-0.824582377,,-0.950253946,-1.935853018,0.6228154833,-0.65906448,-0.855003409,0.0279237601
03/15/2005,2005,3,74,15,0.0328329219,,1.7548588714,-0.723814568,-0.823011042,,-0.957466267,,0.643888467,-0.672088813,-0.870073044,-0.02372069
03/16/2005,2005,3,75,16,0.0350605769,,1.7768582169,-0.728530259,-0.821132348,,-0.964512888,,0.6647270729,-0.684677529,-0.886911537,-0.074042387
03/17/2005,2005,3,76,17,0.0369302798,,1.7986619013,-0.7330669,-0.818885885,,-0.971424298,,0.6852314132,-0.69668024,-0.904778928,-0.122680578
03/18/2005,2005,3,77,18,0.0384539745,,1.8201493674,-0.737333769,-0.816211242,,-0.978230987,,0.7053016002,-0.707946556,-0.922935259,-0.16927451
03/19/2005,2005,3,78,19,0.0396436047,,1.8412000579,-0.741240141,-0.813048007,,-0.984963444,,0.724837746,-0.718326088,-0.94064057,-0.213463432
03/20/2005,2005,3,79,20,0.0405111144,,1.8616934154,-0.744695292,-0.809335768,,-0.991652158,,0.7437399627,-0.727668444,-0.957154902,-0.25488659
03/21/2005,2005,3,80,21,0.0410684475,,1.8815088828,-0.747608498,-0.805014114,,-0.99832762,,0.7619083626,-0.735823236,-0.971738296,-0.293183233
03/22/2005,2005,3,81,22,0.0413275476,,1.9005259028,-0.749889035,-0.800022634,,-1.005020317,,0.7792430579,-0.742640074,-0.983650794,-0.327992608
03/23/2005,2005,3,82,23,0.0413003587,,1.918623918,-0.751446178,-0.794300915,,-1.011760741,,0.7956441607,-0.747968568,-0.992152437,-0.358953962
03/24/2005,2005,3,83,24,0.0409988246,,1.9356823712,-0.752189204,-0.787788548,,-1.018579381,,0.8110117832,-0.751658328,-0.996503264,-0.388481732
03/25/2005,2005,3,84,25,0.040434889,,1.9515807052,-0.752027388,-0.78042512,,-1.025506727,,0.8267667507,-0.753558965,-0.995963319,-0.419132596
03/26/2005,2005,3,85,26,0.0396204958,,1.9661983627,-0.750870007,-0.772150219,,-1.032573269,,0.8442831304,-0.753520088,-0.992658726,-0.450759166
03/27/2005,2005,3,86,27,0.0385675886,,1.9794147864,-0.748626337,-0.762903435,,-1.039743515,,0.863390898,-0.751391308,-0.989184007,-0.483214054
03/28/2005,2005,3,87,28,0.0372881114,,1.991109419,-0.745205652,-0.752624356,,-1.046680599,,0.8839200287,-0.747994474,-0.985501794,-0.516349873
03/29/2005,2005,3,88,29,0.0354447838,,2.0024753462,-0.740517231,-0.74125257,,-1.053113407,,0.9057004983,-0.744251845,-0.981574719,-0.550019235
03/30/2005,2005,3,89,30,0.0327318637,,2.0147153886,-0.734470347,-0.728727667,,-1.059077698,,0.928562282,-0.740163645,-0.977365414,-0.584074751
03/31/2005,2005,3,90,31,0.0292086024,,2.0277235914,-0.726974277,-0.714989234,,-1.064609232,,0.9523353554,-0.735730101,-0.972836512,-0.618369035
04/01/2005,2005,4,91,1,0.0249342512,,2.0413939998,-0.71850645,-0.700242226,,-1.069743767,,0.976849694,-0.730951437,-0.967950644,-0.652754698
04/02/2005,2005,4,92,2,0.0199680613,,2.0556206591,-0.709611885,-0.684751019,,-1.074517063,,1.0019352732,-0.725827879,-0.962670443,-0.687084352
04/03/2005,2005,4,93,3,0.0143692838,,2.0702976144,-0.700301247,-0.668544329,,-1.078964878,,1.0274220686,-0.720359651,-0.956958541,-0.721210609
04/04/2005,2005,4,94,4,0.00819717,,2.085318911,-0.6905852,-0.651650873,,-1.083122972,,1.0531400556,-0.714546979,-0.950777569,-0.754986083
04/05/2005,2005,4,95,5,0.0015109711,,2.1005785939,-0.680474409,-0.634099369,,-1.087027104,,1.0789192096,-0.708390088,-0.944090161,-0.788263384
04/06/2005,2005,4,96,6,-0.005630062,-1.021364829,2.1159707086,-0.669979537,-0.615918534,,-1.090713034,-1.182519685,1.1045895062,-0.701889203,-0.936858949,-0.820895126
04/07/2005,2005,4,97,7,-0.013166677,,2.1313893001,-0.659111249,-0.597137084,,-1.094216521,,1.1299809209,-0.695044549,-0.929046563,-0.85273392
04/08/2005,2005,4,98,8,-0.021039625,,2.1467284136,-0.64788021,-0.577783738,,-1.097573325,,1.1549234291,-0.687856351,-0.920615638,-0.883632378
04/09/2005,2005,4,99,9,-0.029189653,,2.1618820944,-0.636297083,-0.557887211,,-1.100819205,,1.1792470062,-0.680324836,-0.911528804,-0.913443112
04/10/2005,2005,4,100,10,-0.03755751,,2.1767443877,-0.624372533,-0.537476223,,-1.103989922,,1.2027816279,-0.672450226,-0.901748694,-0.942018736
04/11/2005,2005,4,101,11,-0.046083945,,2.1912093386,-0.612117224,-0.516579489,,-1.107121234,,1.2253572695,-0.664232749,-0.89123794,-0.96921186
04/12/2005,2005,4,102,12,-0.054709708,,2.2051709924,-0.59954182,-0.495225727,,-1.110248903,,1.2468039065,-0.655672628,-0.879959175,-0.994875098
04/13/2005,2005,4,103,13,-0.063375546,,2.2185233943,-0.586656987,-0.473443654,,-1.113408687,,1.2669515144,-0.64677009,-0.86787503,-1.018861061
04/14/2005,2005,4,104,14,-0.07202221,,2.2311605895,-0.573473387,-0.451261987,,-1.116636348,,1.2856300688,-0.637525359,-0.854948138,-1.041022361
04/15/2005,2005,4,105,15,-0.080590447,,2.2429766232,-0.560001686,-0.428709444,,-1.119967645,,1.302669545,-0.627938661,-0.84114113,-1.061211611
04/16/2005,2005,4,106,16,-0.089021007,,2.2538655406,-0.546252547,-0.405814742,,-1.123438339,,1.3178999185,-0.61801022,-0.826416639,-1.079281422
04/17/2005,2005,4,107,17,-0.097254639,,2.2637213868,-0.532236636,-0.382606597,,-1.12708419,,1.3311511649,-0.607740262,-0.810737298,-1.095084408
04/18/2005,2005,4,108,18,-0.105232091,,2.2724382072,-0.517964615,-0.359113727,,-1.130940958,,1.3422532595,-0.597129012,-0.794065737,-1.10847318
04/19/2005,2005,4,109,19,-0.112894113,,2.2799100469,-0.50344715,-0.33536485,,-1.135044405,,1.351036178,-0.586176695,-0.77636459,-1.11930035
04/20/2005,2005,4,110,20,-0.120181454,,2.2860309511,-0.488694905,-0.311388682,,-1.13943029,,1.3573298957,-0.574883536,-0.757596489,-1.127385043
04/21/2005,2005,4,111,21,-0.127034862,,2.2906949651,-0.473718544,-0.28721394,,-1.144134374,,1.3613269786,-0.563249761,-0.737724065,-1.13275091